| time (UTC) | temp C | wind direction | speed KPH | gust KPH | rain 1hr cm | rain 24hr cm | rain mn cm | humidity % | barometer mb |
| 20260506014015 | 20 | 270 | 11.3 | 19.3 | 0.00 | 1.27 | 0.43 | 34 | 1010.8 |
| 20260506013016 | 21 | 270 | 11.3 | 17.7 | 0.00 | 1.27 | 0.43 | 34 | 1010.7 |
| 20260506012015 | 21 | 248 | 11.3 | 22.5 | 0.00 | 1.27 | 0.43 | 34 | 1010.6 |
| 20260506011016 | 21 | 270 | 14.5 | 32.2 | 0.00 | 1.27 | 0.43 | 34 | 1010.6 |
| 20260506010015 | 21 | 270 | 11.3 | 22.5 | 0.00 | 1.30 | 0.43 | 33 | 1010.4 |
| 20260506005016 | 22 | 270 | 16.1 | 25.7 | 0.00 | 1.30 | 0.43 | 31 | 1010.3 |
| 20260506004015 | 22 | 248 | 11.3 | 19.3 | 0.00 | 1.30 | 0.43 | 29 | 1010.3 |
| 20260506003015 | 22 | 225 | 4.8 | 16.1 | 0.00 | 1.30 | 0.43 | 30 | 1010.2 |
| 20260506002015 | 22 | 248 | 9.7 | 16.1 | 0.00 | 1.30 | 0.43 | 31 | 1010.1 |
| 20260506001016 | 22 | 248 | 9.7 | 22.5 | 0.00 | 1.30 | 0.43 | 29 | 1010.2 |
| 20260506000016 | 23 | 270 | 9.7 | 17.7 | 0.00 | 1.30 | 0.43 | 27 | 1010.0 |
| 20260505235015 | 23 | 270 | 9.7 | 17.7 | 0.00 | 1.30 | 0.43 | 29 | 1009.9 |
| 20260505234015 | 23 | 248 | 8.0 | 19.3 | 0.00 | 1.30 | 0.43 | 28 | 1009.8 |
| 20260505233015 | 23 | 248 | 6.4 | 14.5 | 0.00 | 1.30 | 0.43 | 28 | 1009.9 |
| 20260505232015 | 23 | 248 | 9.7 | 20.9 | 0.00 | 1.30 | 0.43 | 27 | 1009.8 |
| 20260505231015 | 23 | 248 | 9.7 | 20.9 | 0.00 | 1.30 | 0.43 | 28 | 1009.8 |
| 20260505230015 | 23 | 270 | 8.0 | 16.1 | 0.00 | 1.30 | 0.43 | 31 | 1009.9 |
| 20260505225015 | 22 | 270 | 8.0 | 16.1 | 0.00 | 1.30 | 0.43 | 33 | 1010.0 |
| 20260505224015 | 22 | 248 | 8.0 | 16.1 | 0.00 | 1.30 | 0.43 | 33 | 1010.1 |
| 20260505223015 | 23 | 248 | 8.0 | 22.5 | 0.00 | 1.30 | 0.43 | 32 | 1010.3 |
| 20260505222015 | 22 | 248 | 9.7 | 19.3 | 0.00 | 1.30 | 0.43 | 31 | 1010.4 |
| 20260505221015 | 23 | 225 | 8.0 | 16.1 | 0.00 | 1.30 | 0.43 | 31 | 1010.6 |
| 20260505220015 | 23 | 203 | 4.8 | 16.1 | 0.00 | 1.30 | 0.43 | 32 | 1010.7 |
| 20260505215015 | 22 | 225 | 11.3 | 19.3 | 0.00 | 1.30 | 0.43 | 34 | 1010.8 |
| 20260505214015 | 23 | 203 | 11.3 | 27.4 | 0.00 | 1.30 | 0.43 | 31 | 1010.9 |
| 20260505213015 | 23 | 248 | 9.7 | 19.3 | 0.00 | 1.30 | 0.43 | 30 | 1011.0 |
| 20260505212016 | 23 | 225 | 12.9 | 27.4 | 0.00 | 1.30 | 0.43 | 30 | 1011.2 |
| 20260505211020 | 23 | 225 | 11.3 | 33.8 | 0.00 | 1.30 | 0.43 | 26 | 1011.2 |
| 20260505210015 | 23 | 225 | 12.9 | 29.0 | 0.00 | 1.30 | 0.43 | 29 | 1011.4 |
| 20260505205015 | 23 | 248 | 12.9 | 32.2 | 0.00 | 1.30 | 0.43 | 29 | 1011.4 |
| 20260505204015 | 23 | 248 | 11.3 | 24.1 | 0.00 | 1.30 | 0.43 | 29 | 1011.4 |
| 20260505203015 | 23 | 248 | 16.1 | 27.4 | 0.00 | 1.30 | 0.43 | 31 | 1011.4 |
| 20260505202015 | 23 | 225 | 11.3 | 27.4 | 0.00 | 1.30 | 0.43 | 33 | 1011.5 |
| 20260505201015 | 23 | 203 | 16.1 | 33.8 | 0.00 | 1.30 | 0.43 | 39 | 1011.5 |
| 20260505200015 | 21 | 248 | 12.9 | 32.2 | 0.00 | 1.30 | 0.43 | 39 | 1011.5 |
| 20260505195015 | 21 | 293 | 4.8 | 22.5 | 0.00 | 1.30 | 0.43 | 50 | 1011.7 |
| 20260505194015 | 20 | 293 | 4.8 | 9.7 | 0.00 | 1.30 | 0.43 | 52 | 1011.6 |
| 20260505193015 | 21 | 248 | 1.6 | 9.7 | 0.00 | 1.30 | 0.43 | 51 | 1011.8 |
| 20260505192015 | 21 | 203 | 1.6 | 4.8 | 0.00 | 1.30 | 0.43 | 51 | 1011.8 |
| 20260505191015 | 21 | 203 | 3.2 | 11.3 | 0.00 | 1.30 | 0.43 | 49 | 1012.0 |
| 20260505190015 | 21 | 23 | 3.2 | 6.4 | 0.00 | 1.30 | 0.43 | 51 | 1012.1 |
| 20260505185015 | 21 | 293 | 4.8 | 8.0 | 0.00 | 1.30 | 0.43 | 52 | 1012.2 |
| 20260505184015 | 20 | 203 | 3.2 | 6.4 | 0.00 | 1.30 | 0.43 | 54 | 1012.6 |
| 20260505183015 | 20 | 270 | 4.8 | 11.3 | 0.00 | 1.30 | 0.43 | 55 | 1012.5 |
| 20260505182015 | 20 | 248 | 3.2 | 6.4 | 0.00 | 1.30 | 0.43 | 56 | 1012.7 |
| 20260505181015 | 19 | 203 | 1.6 | 9.7 | 0.00 | 1.30 | 0.43 | 59 | 1012.7 |
| 20260505180020 | 20 | 113 | 3.2 | 11.3 | 0.00 | 1.30 | 0.43 | 58 | 1012.8 |
| 20260505175015 | 19 | 68 | 1.6 | 4.8 | 0.00 | 1.30 | 0.43 | 59 | 1012.8 |
| 20260505174015 | 19 | 113 | 1.6 | 6.4 | 0.00 | 1.30 | 0.43 | 59 | 1012.8 |
| 20260505173015 | 18 | 248 | 1.6 | 9.7 | 0.00 | 1.30 | 0.43 | 62 | 1012.8 |
| 20260505172015 | 18 | 225 | 1.6 | 4.8 | 0.00 | 1.30 | 0.43 | 64 | 1012.8 |
| 20260505171015 | 18 | 203 | 4.8 | 9.7 | 0.00 | 1.30 | 0.43 | 64 | 1012.8 |
| 20260505170015 | 18 | 203 | 3.2 | 6.4 | 0.00 | 1.30 | 0.43 | 65 | 1012.7 |
| 20260505165015 | 17 | 0 | 3.2 | 14.5 | 0.00 | 1.30 | 0.43 | 65 | 1012.8 |
| 20260505164015 | 17 | 68 | 4.8 | 11.3 | 0.00 | 1.30 | 0.43 | 70 | 1012.7 |
| 20260505163015 | 16 | 135 | 1.6 | 4.8 | 0.00 | 1.30 | 0.43 | 75 | 1012.9 |
| 20260505162020 | 16 | 0.0 | 4.8 | 0.00 | 1.30 | 0.43 | 76 | 1013.0 | |
| 20260505161015 | 16 | 0.0 | 0.0 | 0.00 | 1.30 | 0.43 | 76 | 1013.0 | |
| 20260505153015 | 16 | 0.0 | 3.2 | 0.00 | 1.30 | 0.43 | 77 | 1012.7 | |
| 20260505152015 | 16 | 0.0 | 4.8 | 0.00 | 1.30 | 0.43 | 77 | 1012.7 | |
| 20260505151015 | 16 | 0.0 | 3.2 | 0.00 | 1.30 | 0.43 | 79 | 1012.7 | |
| 20260505140518 | 15 | 68 | 1.6 | 3.2 | 0.00 | 1.30 | 0.43 | 79 | 1012.2 |
| 20260505124517 | 14 | 45 | 3.2 | 8.0 | 0.03 | 1.30 | 0.43 | 86 | 1011.5 |
| 20260505123517 | 14 | 0.0 | 3.2 | 0.05 | 1.30 | 0.43 | 85 | 1011.5 | |
| 20260505122517 | 14 | 0 | 1.6 | 6.4 | 0.05 | 1.30 | 0.43 | 83 | 1011.4 |
| 20260505121517 | 14 | 0.0 | 3.2 | 0.05 | 1.30 | 0.43 | 84 | 1011.1 | |
| 20260505120517 | 13 | 45 | 4.8 | 14.5 | 0.05 | 1.30 | 0.43 | 85 | 1011.1 |
| 20260505115517 | 13 | 45 | 4.8 | 9.7 | 0.03 | 1.27 | 0.41 | 85 | 1011.1 |
| 20260505114517 | 13 | 90 | 4.8 | 16.1 | 0.03 | 1.27 | 0.41 | 84 | 1011.1 |
| 20260505113517 | 13 | 90 | 4.8 | 9.7 | 0.00 | 1.24 | 0.38 | 85 | 1011.4 |
| 20260505112517 | 13 | 90 | 3.2 | 11.3 | 0.00 | 1.24 | 0.38 | 84 | 1011.4 |
| 20260505111517 | 13 | 45 | 4.8 | 9.7 | 0.03 | 1.24 | 0.38 | 86 | 1011.3 |
| 20260505110517 | 13 | 68 | 8.0 | 16.1 | 0.05 | 1.24 | 0.38 | 87 | 1011.5 |
| 20260505101517 | 13 | 90 | 6.4 | 14.5 | 0.10 | 1.22 | 0.36 | 91 | 1012.6 |
| 20260505100517 | 13 | 90 | 8.0 | 16.1 | 0.08 | 1.19 | 0.33 | 91 | 1012.6 |
| 20260505095517 | 13 | 90 | 9.7 | 19.3 | 0.10 | 1.19 | 0.33 | 91 | 1012.7 |
| 20260505094517 | 13 | 90 | 9.7 | 19.3 | 0.10 | 1.19 | 0.33 | 91 | 1012.6 |
| 20260505093517 | 13 | 90 | 9.7 | 20.9 | 0.08 | 1.17 | 0.30 | 91 | 1012.8 |
| 20260505092517 | 13 | 90 | 12.9 | 24.1 | 0.08 | 1.14 | 0.28 | 91 | 1012.9 |
| 20260505091517 | 14 | 90 | 11.3 | 22.5 | 0.05 | 1.12 | 0.25 | 90 | 1012.9 |
| 20260505090517 | 13 | 68 | 16.1 | 24.1 | 0.08 | 1.12 | 0.25 | 90 | 1012.9 |
| 20260505085517 | 14 | 90 | 11.3 | 19.3 | 0.10 | 1.09 | 0.23 | 90 | 1013.1 |
| 20260505084517 | 14 | 90 | 9.7 | 17.7 | 0.13 | 1.09 | 0.23 | 90 | 1013.5 |
| 20260505083517 | 14 | 68 | 8.0 | 12.9 | 0.15 | 1.09 | 0.23 | 89 | 1014.0 |
| 20260505082517 | 14 | 90 | 6.4 | 12.9 | 0.15 | 1.07 | 0.20 | 89 | 1014.3 |
| 20260505081517 | 14 | 68 | 3.2 | 6.4 | 0.18 | 1.07 | 0.20 | 89 | 1014.4 |
| 20260505080517 | 14 | 68 | 3.2 | 8.0 | 0.18 | 1.04 | 0.18 | 88 | 1014.7 |
| 20260505075517 | 14 | 68 | 3.2 | 6.4 | 0.15 | 0.99 | 0.13 | 88 | 1015.1 |
| 20260505074517 | 14 | 90 | 1.6 | 4.8 | 0.15 | 0.97 | 0.10 | 88 | 1015.3 |
| 20260505073517 | 14 | 45 | 1.6 | 6.4 | 0.15 | 0.94 | 0.08 | 88 | 1015.3 |
| 20260505072517 | 14 | 68 | 3.2 | 8.0 | 0.15 | 0.91 | 0.05 | 89 | 1015.1 |
| 20260505071517 | 14 | 68 | 1.6 | 4.8 | 0.15 | 0.89 | 0.03 | 89 | 1015.2 |
| 20260505070517 | 14 | 68 | 1.6 | 4.8 | 0.18 | 0.86 | 0.00 | 89 | 1015.0 |
| 20260505065515 | 14 | 90 | 1.6 | 3.2 | 0.20 | 0.84 | 0.84 | 88 | 1014.9 |
| 20260505064515 | 14 | 0.0 | 1.6 | 0.23 | 0.81 | 0.81 | 88 | 1014.8 | |
| 20260505063515 | 14 | 0.0 | 1.6 | 0.25 | 0.79 | 0.79 | 88 | 1014.8 | |
| 20260505062515 | 15 | 0.0 | 1.6 | 0.30 | 0.76 | 0.76 | 87 | 1014.9 | |
| 20260505061515 | 15 | 45 | 1.6 | 4.8 | 0.33 | 0.74 | 0.74 | 87 | 1015.0 |
| 20260505060515 | 15 | 68 | 4.8 | 8.0 | 0.30 | 0.69 | 0.69 | 85 | 1015.0 |
| 20260505055515 | 14 | 0 | 6.4 | 17.7 | 0.28 | 0.64 | 0.64 | 85 | 1014.8 |
| 20260505054515 | 15 | 0 | 3.2 | 8.0 | 0.25 | 0.58 | 0.58 | 85 | 1014.8 |
| 20260505053515 | 15 | 0 | 1.6 | 4.8 | 0.20 | 0.53 | 0.53 | 84 | 1015.1 |
| 20260505052515 | 15 | 180 | 1.6 | 6.4 | 0.13 | 0.46 | 0.46 | 84 | 1015.0 |
| 20260505051515 | 15 | 45 | 3.2 | 9.7 | 0.10 | 0.41 | 0.41 | 82 | 1014.7 |
| 20260505050515 | 15 | 45 | 1.6 | 4.8 | 0.10 | 0.38 | 0.38 | 84 | 1014.5 |
| 20260505041515 | 16 | 293 | 1.6 | 6.4 | 0.03 | 0.30 | 0.30 | 80 | 1014.9 |
| 20260505040515 | 16 | 23 | 3.2 | 6.4 | 0.00 | 0.28 | 0.28 | 77 | 1014.9 |
| 20260505035515 | 15 | 68 | 3.2 | 8.0 | 0.03 | 0.28 | 0.28 | 77 | 1014.8 |
| 20260505034517 | 15 | 0.0 | 4.8 | 0.03 | 0.28 | 0.28 | 76 | 1014.4 | |
| 20260505033517 | 15 | 135 | 1.6 | 6.4 | 0.05 | 0.28 | 0.28 | 74 | 1013.8 |
| 20260505032517 | 15 | 90 | 3.2 | 9.7 | 0.05 | 0.28 | 0.28 | 76 | 1013.6 |
| 20260505031517 | 15 | 68 | 4.8 | 11.3 | 0.08 | 0.28 | 0.28 | 74 | 1013.8 |
| 20260505030517 | 14 | 45 | 8.0 | 19.3 | 0.13 | 0.28 | 0.28 | 72 | 1014.5 |
| 20260505025517 | 13 | 90 | 9.7 | 20.9 | 0.15 | 0.25 | 0.25 | 72 | 1014.7 |
| 20260505024517 | 14 | 68 | 6.4 | 11.3 | 0.18 | 0.25 | 0.25 | 75 | 1014.8 |
| 20260505023517 | 14 | 68 | 6.4 | 14.5 | 0.18 | 0.23 | 0.23 | 71 | 1014.9 |
| 20260505022517 | 15 | 45 | 6.4 | 11.3 | 0.18 | 0.23 | 0.23 | 71 | 1014.8 |
| 20260505021517 | 15 | 0 | 8.0 | 14.5 | 0.18 | 0.20 | 0.20 | 69 | 1014.8 |
| 20260505020517 | 16 | 23 | 1.6 | 6.4 | 0.13 | 0.15 | 0.15 | 65 | 1014.9 |
| 20260505015517 | 16 | 315 | 3.2 | 9.7 | 0.08 | 0.10 | 0.10 | 58 | 1014.8 |
| 20260505014517 | 16 | 293 | 9.7 | 25.7 | 0.08 | 0.08 | 0.08 | 57 | 1014.6 |